Location: Fonches
(49.7732°N, 2.8134°E)
Time: 19:10:40
(UTC+00:00)

Daily predictions for brighter satellites

Satellite Brightness Start Highest point End
(mag) Time Altitude Azimuth Time Altitude Azimuth Time Altitude Azimuth
Cosmos 2016 Rocket 4.1 16:25:45 10° S 16:32:02 73° E 16:38:23 10° NNE
CBERS-1 4.0 16:29:23 10° SSE 16:34:30 82° ENE 16:39:39 10° NNW
Tsikada Rocket 4.1 16:28:37 10° N 16:35:02 68° ENE 16:41:21 10° SSE
Cosmos 2084 Rocket 3.5 16:35:00 10° SW 16:39:10 78° NW 16:43:23 10° NE
SMAP 3.2 16:37:48 10° SE 16:42:19 52° ENE 16:46:52 10° N
Cosmos 44 Rocket 4.4 16:39:18 10° S 16:43:15 26° ESE 16:47:18 10° ENE
Cosmos 540 Rocket 3.7 16:39:03 10° NNW 16:44:03 48° ENE 16:48:59 10° SE
SJ 16-02 3.2 16:44:13 10° ESE 16:45:57 12° E 16:47:42 10° ENE
Cosmos 1869 3.9 16:44:40 10° SSE 16:47:42 27° E 16:50:44 10° NNE
YAOGAN 1 4.1 16:46:35 10° E 16:49:10 16° ENE 16:51:46 10° NNE
IGS 5A 3.3 16:45:26 10° SSE 16:49:23 87° E 16:53:24 10° NNW
Cosmos 1763 Rocket 3.5 16:47:20 10° NNW 16:52:33 65° ENE 16:57:39 10° SE
SL-16 R/B 2.7 16:46:32 10° NNE 16:52:51 88° WNW 16:59:06 10° SSW
Landsat 7 3.9 16:50:00 10° SE 16:54:28 50° ENE 16:58:59 10° N
SAR-Lupe-5 4.2 16:52:14 10° NNE 16:54:51 86° ESE 16:57:30 10° SSW
Timation 1 Rocket 4.3 16:52:10 10° NNW 16:58:09 70° ENE 17:04:06 10° SE
RESURS DK-1 2.2 16:54:13 10° NNW 16:58:14 69° ENE 17:02:12 10° SE
Cosmos 1140 Rocket 3.5 16:54:16 10° SSW 16:59:27 88° ESE 17:04:38 10° NNE
Aureole 3 Rocket 3.4 16:58:18 10° SE 17:00:46 23° E 17:03:25 10° NE
CZ-4C R/B 3.3 16:56:33 10° W 17:00:51 31° NNW 17:06:15 10° NE
UNK 3.7 17:01:11 10° NNE 17:05:48 71° ESE 17:10:23 10° S
Meteor 1-28 Rocket 3.4 17:02:37 10° N 17:05:57 62° WNW 17:09:16 10° SSW
Meteor 2-12 Rocket 4.4 17:02:57 10° N 17:09:03 70° ENE 17:15:05 10° SSE
Cosmos 1400 Rocket 4.1 17:07:35 10° SE 17:10:12 18° E 17:11:08 17° ENE
SJ-12 3.6 17:07:04 10° SSE 17:10:49 67° ENE 17:14:36 10° N
Cosmos 1536 Rocket 4.3 17:07:41 10° N 17:11:39 31° ENE 17:15:34 10° SE
SAR-Lupe-3 4.2 17:13:47 16° NE 17:15:39 40° E 17:18:10 10° S
Helios 1A Rocket 4.4 17:16:48 13° ESE 17:16:48 13° ESE 17:17:43 10° SE
Okean 2 Rocket 4.1 17:14:08 10° SE 17:17:35 23° E 17:20:03 15° NE
CORIOLIS 4.5 17:15:08 10° S 17:20:28 71° WSW 17:25:50 10° NNW
IRS-1C 4.2 17:16:37 10° SSE 17:21:57 86° WSW 17:27:19 10° NNW
ATLAS CENTAUR R/B 3.4 17:23:16 10° WNW 17:25:02 13° NNW 17:26:48 10° N
SL-12 R/B(2) 4.4 17:18:18 10° SSW 17:26:13 73° SE 17:35:47 11° NE
COSMO-SKYMED 1 3.5 17:26:49 22° ENE 17:27:42 24° E 17:31:03 10° SSE
Resurs 01 Rocket 3.3 17:30:11 15° NE 17:30:11 15° NE 17:31:47 10° NNE
Cosmos 1943 Rocket 2.1 17:24:20 10° SSW 17:29:54 72° ESE 17:35:18 11° NNE
Timation 2 Rocket 4.2 17:24:22 10° SSW 17:31:15 78° ESE 17:38:06 10° NNE
Cosmos 841 Rocket 3.8 17:28:14 10° NNW 17:33:15 42° ENE 17:38:14 10° SE
Cosmos 2058 2.7 17:29:47 10° N 17:33:45 64° ENE 17:37:42 10° SSE
Cosmos 2251 Rocket 3.7 17:28:52 10° S 17:33:59 53° ESE 17:38:36 13° NNE
BREEZE-M DEB (TANK) 2.4 17:34:38 10° WSW 17:37:09 60° SSE 17:39:49 24° E
Cosmos 2082 Rocket 2.1 17:32:48 10° NNW 17:38:27 82° ENE 17:44:05 10° SSE
ATLAS 2AS CENTAUR R/B 3.3 17:32:32 10° NW 17:38:49 37° NNE 17:42:14 23° ENE
Cosmos 1346 Rocket 4.2 17:37:05 10° N 17:38:39 19° NNE 17:38:39 19° NNE
Cosmos 2278 Rocket 2.1 17:37:44 10° SSW 17:43:23 85° ESE 17:48:33 13° NNE
IRAS Rocket 4.2 17:38:06 10° SE 17:43:33 59° ENE 17:48:58 10° N
Cosmos 1602 3.0 17:41:57 10° N 17:45:02 84° W 17:48:05 10° S
MOS 1 Rocket 3.1 17:41:20 10° SSE 17:45:39 90° SW 17:50:14 10° NNW
Cosmos 468 Rocket 4.0 17:42:26 10° NNW 17:47:40 83° WSW 17:52:48 10° SSE
Cosmos 1464 Rocket 3.9 17:43:54 10° S 17:50:05 64° E 17:56:14 10° NNE
ARIANE 5 R/B 3.5 17:45:54 10° S 17:50:42 49° W 17:55:35 10° NNW
CZ-2D R/B 3.3 17:47:18 10° SSE 17:51:26 73° ENE 17:55:40 10° N
Cosmos 2369 Rocket 4.2 17:49:52 10° SE 17:50:08 11° SE 17:50:08 11° SE
USA 215 4.0 17:48:51 10° SSE 17:55:11 51° SW 18:01:33 10° WNW
Cosmos 1862 2.9 17:52:32 10° N 17:56:11 83° E 17:59:49 10° S
PSLV R/B 3.3 17:53:17 10° SSE 17:57:15 59° ENE 18:01:13 10° N
Geosat FO 4.4 17:57:42 23° SSE 17:59:19 62° WSW 18:02:11 10° NW
Cosmos 2151 Rocket 3.5 17:56:10 10° S 18:00:38 75° E 18:05:05 10° NNE
Cosmos 1190 Rocket 3.9 17:56:29 10° SSW 18:01:45 76° ESE 18:05:26 20° NNE
ISS -3.9 18:00:21 10° WSW 18:03:41 84° NNW 18:03:52 79° NE
Cosmos 2034 Rocket 4.0 17:58:03 10° SSE 18:04:03 55° E 18:10:10 10° NNE
Cosmos 1812 3.2 18:02:07 10° SSW 18:04:54 42° WNW 18:06:21 23° NNW
Cosmos 676 Rocket 4.1 17:59:47 10° S 18:04:54 51° ESE 18:06:42 36° NE
Okean 1 Rocket 3.0 18:03:01 10° S 18:07:20 57° E 18:08:25 44° NE
SKYMED 2 3.4 18:03:51 15° NNE 18:07:25 82° ESE 18:11:46 10° SSW
Cosmos 1656 Rocket 4.1 18:02:27 10° S 18:07:34 39° ESE 18:08:00 38° E
Cosmos 220 Rocket 4.3 18:07:58 10° NNW 18:11:16 44° NNE 18:11:16 44° NNE
Cosmos 407 Rocket 4.4 18:07:18 10° SW 18:12:18 47° WNW 18:17:08 11° NNE
Sich 1 Rocket 3.5 18:08:34 10° S 18:13:04 67° E 18:14:56 34° NNE
USA 281 3.6 18:11:29 35° E 18:13:05 41° NE 18:19:10 10° NNW
COSMOS 2406 3.1 18:08:25 10° NNW 18:14:09 85° ENE 18:19:01 15° SSE
Cosmos 1954 Rocket 3.9 18:08:55 10° SSW 18:14:11 78° ESE 18:16:53 29° NNE
Cosmos 1092 Rocket 4.0 18:10:01 10° N 18:16:11 55° ENE 18:22:14 10° SSE
BlueWalker 3 4.1 18:14:46 10° S 18:15:40 14° S 18:15:40 14° S
SL-19 R/B 4.0 18:13:33 10° SSE 18:18:46 86° WSW 18:24:03 10° NNW
Cosmos 2026 Rocket 3.8 18:15:09 10° N 18:21:14 67° ENE 18:27:21 10° SSE
SJ 16-02 1.3 18:19:05 10° SSW 18:23:24 81° WNW 18:24:29 50° NNE
Cosmos 44 Rocket 3.7 18:19:35 10° SW 18:24:20 58° NW 18:26:14 35° NNE
YAOGAN 1 2.7 18:20:17 10° S 18:24:31 71° WSW 18:28:48 10° NNW
SPOT 1/Viking Rocket 4.1 18:21:13 10° S 18:26:17 57° W 18:31:26 10° NNW
Cosmos 2344 3.8 18:24:13 10° NW 18:32:04 81° NE 18:38:34 26° SE
Cosmos 2297 Rocket 4.3 18:31:51 10° N 18:33:09 12° NNE 18:33:09 12° NNE
Meteor 2-3 Rocket 3.7 18:31:26 10° NNW 18:37:10 86° WSW 18:42:48 10° S
Resurs 1-3 4.2 18:34:51 10° S 18:39:04 54° W 18:43:18 10° NNW
Cosmos 1400 Rocket 3.9 18:41:46 10° SW 18:45:23 40° WNW 18:45:47 39° NW
Cosmos 304 Rocket 4.0 18:43:34 10° SSW 18:48:16 65° WNW 18:48:47 60° NNW
Cosmos 371 Rocket 3.5 18:45:20 10° SSW 18:50:06 66° WNW 18:50:35 61° NNW
CZ-4C R/B 3.9 18:46:32 10° NW 18:50:58 23° N 18:51:49 22° NNE
Cosmos 1627 Rocket 4.5 18:47:49 10° NNW 18:53:58 78° W 19:00:08 10° S
Okean 2 Rocket 4.3 18:51:10 10° SW 18:55:19 40° WNW 18:57:20 25° NNW
COSMO-SKYMED 1 3.7 19:03:10 38° WNW 19:03:10 38° WNW 19:06:58 10° SW
Resurs 01 Rocket 3.6 19:07:36 22° NNW 19:07:36 22° NNW 19:09:13 10° NNW
Geosat 4.4 19:05:27 58° SW 19:05:40 59° WSW 19:10:38 10° NW
BREEZE-M DEB (TANK) 3.9 19:08:35 10° W 19:11:47 75° WSW 19:11:47 75° WSW
Cosmos 1943 Rocket 4.0 19:09:30 10° W 19:14:10 26° NW 19:16:48 19° N
Cosmos 2278 Rocket 4.2 19:23:41 10° W 19:28:11 24° NW 19:30:23 19° N
ATLAS 2AS CENTAUR R/B 2.7 19:23:33 10° NW 19:29:41 72° WNW 19:29:41 72° WNW
Cosmos 1634 Rocket 4.5 19:29:37 10° SSW 19:42:27 - N 19:34:50 55° WSW
Cosmos 2369 Rocket 4.3 19:30:49 10° SSW 19:31:59 17° SSW 19:31:59 17° SSW
USA 281 3.9 19:58:22 50° W 19:58:22 50° W 20:03:54 10° NNW
SJ 16-02 4.4 20:00:11 10° WNW 20:01:03 12° WNW 20:01:03 12° WNW
